Little Falls, MN

6:52 PM CDT on August 27, 2016 (GMT -0500)
Little Falls-Morrison County

Weather History for KLXL - May, 2013

Change the Weather History Date:

Wednesday, May 15, 2013

  Actual Average Record
Temperature  
Mean Temperature 60 °F -  
Max Temperature 78 °F 71 °F 96 °F (2001)
Min Temperature 41 °F 43 °F 26 °F (1959)
Degree Days  
Heating Degree Days 6    
Growing Degree Days 10 (Base 50)    
Moisture  
Dew Point 37 °F    
Average Humidity 43    
Maximum Humidity 87    
Minimum Humidity 17    
Precipitation  
Precipitation 0.00 in - - ()
Sea Level Pressure  
Sea Level Pressure 29.83 in    
Wind  
Wind Speed 6 mph (WNW)    
Max Wind Speed 16 mph    
Max Gust Speed 25 mph    
Visibility 10 miles    
Events      
Averages and records for this station are not official NWS values.
T = Trace of Precipitation, MM = Missing Value Source: NWS Daily Summary

Daily Weather History Graph

Daily Weather History Graph

Search for Another Location

Airport or City:

Trip Planner

Search our weather history database for the weather conditions in past years. The results will help you decide how hot, cold, wet, or windy it might be!

Date:

Astronomy

May. 15, 2013 Rise Set
Actual Time 5:45 AM CDT 8:43 PM CDT
Civil Twilight 5:10 AM CDT 9:18 PM CDT
Nautical Twilight 4:25 AM CDT 10:03 PM CDT
Astronomical Twilight 3:31 AM CDT 10:57 PM CDT
Moon 10:24 AM CDT (5/15) 12:27 AM CDT (5/15)
Length of Visible Light 16h 08m
Length of Day
14h 58m
Waxing Crescent, 27% of the Moon is Illuminated
May 15
Waxing Crescent
May 17
First Quarter
May 24
Full
May 31
Last Quarter
Jun 8
New

Hourly Weather History & Observations

Time (CDT) Temp. Dew Point Humidity Pressure Visibility Wind Dir Wind Speed Gust Speed Precip Events Conditions
12:16 AM 60.8 °F 41.0 °F 48% 29.74 in 10.0 mi NW 11.5 mph 18.4 mph N/A   Clear
12:36 AM 59.0 °F 41.0 °F 51% 29.75 in 10.0 mi NW 5.8 mph - N/A   Clear
12:57 AM 59.0 °F 41.0 °F 51% 29.77 in 10.0 mi NW 9.2 mph 21.9 mph N/A   Clear
1:16 AM 59.0 °F 41.0 °F 51% 29.77 in 10.0 mi NW 5.8 mph - N/A   Clear
1:36 AM 57.2 °F 41.0 °F 55% 29.78 in 10.0 mi NW 8.1 mph - N/A   Clear
1:57 AM 57.2 °F 41.0 °F 55% 29.79 in 10.0 mi NW 4.6 mph - N/A   Clear
2:16 AM 55.4 °F 41.0 °F 58% 29.79 in 10.0 mi WNW 4.6 mph - N/A   Clear
2:36 AM 53.6 °F 41.0 °F 62% 29.80 in 10.0 mi WNW 3.5 mph - N/A   Clear
2:57 AM 51.8 °F 41.0 °F 67% 29.81 in 10.0 mi WNW 3.5 mph - N/A   Clear
3:16 AM 51.8 °F 41.0 °F 67% 29.81 in 10.0 mi Calm Calm - N/A   Clear
3:36 AM 48.2 °F 41.0 °F 76% 29.81 in 10.0 mi Calm Calm - N/A   Clear
3:57 AM 48.2 °F 41.0 °F 76% 29.81 in 10.0 mi Calm Calm - N/A   Clear
4:16 AM 46.4 °F 41.0 °F 81% 29.82 in 10.0 mi Calm Calm - N/A   Clear
4:36 AM 44.6 °F 41.0 °F 87% 29.82 in 10.0 mi Calm Calm - N/A   Clear
4:56 AM 42.8 °F 39.2 °F 87% 29.82 in 10.0 mi Calm Calm - N/A   Clear
5:16 AM 41.0 °F 37.4 °F 87% 29.81 in 10.0 mi Calm Calm - N/A   Clear
5:36 AM 41.0 °F 37.4 °F 87% 29.84 in 10.0 mi Calm Calm - N/A   Clear
5:57 AM 41.0 °F 37.4 °F 87% 29.86 in 10.0 mi Calm Calm - N/A   Clear
6:16 AM 42.8 °F 39.2 °F 87% 29.88 in 10.0 mi Calm Calm - N/A   Clear
6:36 AM 42.8 °F 39.2 °F 87% 29.88 in 10.0 mi Calm Calm - N/A   Clear
6:56 AM 46.4 °F 42.8 °F 87% 29.90 in 10.0 mi Calm Calm - N/A   Clear
7:16 AM 51.8 °F 42.8 °F 71% 29.90 in 10.0 mi Calm Calm - N/A   Clear
7:37 AM 55.4 °F 41.0 °F 58% 29.90 in 10.0 mi Calm Calm - N/A   Clear
7:56 AM 57.2 °F 41.0 °F 55% 29.90 in 10.0 mi West 4.6 mph - N/A   Clear
8:16 AM 59.0 °F 41.0 °F 51% 29.90 in 10.0 mi West 4.6 mph - N/A   Clear
8:37 AM 60.8 °F 39.2 °F 45% 29.90 in 10.0 mi West 5.8 mph - N/A   Clear
8:56 AM 62.6 °F 37.4 °F 39% 29.90 in 10.0 mi WSW 3.5 mph - N/A   Clear
9:16 AM 64.4 °F 37.4 °F 37% 29.89 in 10.0 mi Calm Calm - N/A   Clear
9:37 AM 64.4 °F 33.8 °F 32% 29.89 in 10.0 mi Calm Calm - N/A   Clear
9:56 AM 68.0 °F 33.8 °F 28% 29.89 in 10.0 mi Calm Calm - N/A   Clear
10:16 AM 68.0 °F 33.8 °F 28% 29.89 in 10.0 mi SSW 6.9 mph - N/A   Clear
10:36 AM 69.8 °F 35.6 °F 28% 29.88 in 10.0 mi West 3.5 mph - N/A   Clear
10:56 AM 71.6 °F 37.4 °F 29% 29.88 in 10.0 mi WSW 11.5 mph - N/A   Clear
11:16 AM 71.6 °F 37.4 °F 29% 29.88 in 10.0 mi WNW 11.5 mph 17.3 mph N/A   Clear
11:36 AM 71.6 °F 37.4 °F 29% 29.87 in 10.0 mi West 10.4 mph 18.4 mph N/A   Clear
11:56 AM 73.4 °F 37.4 °F 27% 29.87 in 10.0 mi West 10.4 mph - N/A   Clear
12:17 PM 73.4 °F 35.6 °F 25% 29.86 in 10.0 mi West 8.1 mph 19.6 mph N/A   Scattered Clouds
12:36 PM 75.2 °F 33.8 °F 22% 29.86 in 10.0 mi West 13.8 mph 19.6 mph N/A   Scattered Clouds
12:57 PM 75.2 °F 32.0 °F 21% 29.85 in 10.0 mi WNW 10.4 mph 17.3 mph N/A   Clear
1:16 PM 77.0 °F 33.8 °F 21% 29.84 in 10.0 mi West 15.0 mph 25.3 mph N/A   Clear
1:36 PM 77.0 °F 32.0 °F 19% 29.84 in 10.0 mi WNW 10.4 mph 16.1 mph N/A   Clear
1:57 PM 77.0 °F 32.0 °F 19% 29.83 in 10.0 mi West 11.5 mph 18.4 mph N/A   Clear
2:16 PM 77.0 °F 32.0 °F 19% 29.83 in 10.0 mi WNW 9.2 mph - N/A   Clear
2:36 PM 77.0 °F 30.2 °F 18% 29.83 in 10.0 mi West 16.1 mph 20.7 mph N/A   Clear
2:57 PM 77.0 °F 30.2 °F 18% 29.83 in 10.0 mi WNW 10.4 mph 21.9 mph N/A   Clear
3:16 PM 77.0 °F 30.2 °F 18% 29.82 in 10.0 mi WNW 10.4 mph 17.3 mph N/A   Clear
3:36 PM 77.0 °F 30.2 °F 18% 29.82 in 10.0 mi West 13.8 mph 21.9 mph N/A   Clear
3:57 PM 77.0 °F 30.2 °F 18% 29.82 in 10.0 mi WNW 12.7 mph - N/A   Clear
4:16 PM 78.8 °F 30.2 °F 17% 29.81 in 10.0 mi WNW 8.1 mph - N/A   Clear
4:36 PM 78.8 °F 30.2 °F 17% 29.81 in 10.0 mi West 10.4 mph 16.1 mph N/A   Clear
4:57 PM 78.8 °F 32.0 °F 18% 29.80 in 10.0 mi WNW 12.7 mph 16.1 mph N/A   Clear
5:16 PM 78.8 °F 32.0 °F 18% 29.80 in 10.0 mi WNW 13.8 mph 18.4 mph N/A   Clear
5:36 PM 78.8 °F 32.0 °F 18% 29.80 in 10.0 mi West 11.5 mph 16.1 mph N/A   Clear
5:57 PM 78.8 °F 32.0 °F 18% 29.80 in 10.0 mi WNW 5.8 mph - N/A   Clear
6:16 PM 77.0 °F 32.0 °F 19% 29.79 in 10.0 mi WNW 5.8 mph - N/A   Clear
6:36 PM 78.8 °F 32.0 °F 18% 29.79 in 10.0 mi West 9.2 mph 16.1 mph N/A   Clear
6:56 PM 78.8 °F 32.0 °F 18% 29.79 in 10.0 mi West 11.5 mph - N/A   Clear
7:16 PM 77.0 °F 32.0 °F 19% 29.79 in 10.0 mi West 5.8 mph - N/A   Clear
7:37 PM 73.4 °F 33.8 °F 23% 29.79 in 10.0 mi WSW 3.5 mph - N/A   Clear
7:56 PM 73.4 °F 33.8 °F 23% 29.79 in 10.0 mi Calm Calm - N/A   Clear
8:16 PM 71.6 °F 35.6 °F 27% 29.79 in 10.0 mi Calm Calm - N/A   Scattered Clouds
8:36 PM 68.0 °F 39.2 °F 35% 29.79 in 10.0 mi Calm Calm - N/A   Scattered Clouds
8:56 PM 64.4 °F 39.2 °F 40% 29.79 in 10.0 mi Calm Calm - N/A   Clear
9:17 PM 64.4 °F 37.4 °F 37% 29.79 in 10.0 mi Calm Calm - N/A   Clear
9:36 PM 62.6 °F 37.4 °F 39% 29.80 in 10.0 mi Calm Calm - N/A   Clear
9:56 PM 60.8 °F 39.2 °F 45% 29.80 in 10.0 mi Calm Calm - N/A   Clear
10:17 PM 59.0 °F 41.0 °F 51% 29.80 in 10.0 mi Calm Calm - N/A   Clear
10:36 PM 55.4 °F 42.8 °F 63% 29.80 in 10.0 mi Calm Calm - N/A   Clear
10:56 PM 57.2 °F 42.8 °F 59% 29.82 in 10.0 mi North 4.6 mph - N/A   Clear
11:17 PM 57.2 °F 41.0 °F 55% 29.81 in 10.0 mi Calm Calm - N/A   Clear
11:56 PM 59.0 °F 39.2 °F 48% 29.82 in 10.0 mi Calm Calm - N/A   Clear